Location: Newark
(35.5300°N, 14.3000°E)
Time: 08:08:36
(UTC+00:00)

Transit 4A - Pass Details

Date: 29 November 2019
Orbit: 872 x 973 km, 66.8° (Epoch: 27 January)

Event Time Altitude Azimuth Distance (km) Brightness Sun altitude
Rises 16:40:08 0° 161° (SSE) 3,631 11.0 -10.2°
Reaches altitude 10° 16:43:38 10° 142° (SE) 2,675 10.1 -10.9°
Maximum altitude 16:47:26 17° 104° (ESE) 2,197 9.4 -11.6°
Enters shadow 16:49:18 15° 83° (E) 2,312 9.3 -12.0°
